Weather History for Worcester, MA

Change the Weather History Date:

Friday, January 18, 2013

  Actual Average Record
Temperature  
Mean Temperature 20 °F 24 °F  
Max Temperature 26 °F 31 °F 59 °F (1973)
Min Temperature 14 °F 16 °F -12 °F (1982)
Degree Days  
Heating Degree Days 45 41  
Month to date heating degree days 623 734  
Since 1 July heating degree days 2838 3238  
Cooling Degree Days 0 0  
Month to date cooling degree days 0 0  
Year to date cooling degree days 0 0  
Moisture  
Dew Point -1 °F    
Average Humidity 42    
Maximum Humidity 53    
Minimum Humidity 31    
Precipitation  
Precipitation 0.00 in 0.12 in 1.21 in (2006)
Month to date precipitation 0.58 2.01  
Year to date precipitation 0.58 2.01  
Snow  
Snow 0.00 in 0.50 in 8.20 in (2009)
Month to date snowfall 4.4 10.0  
Since 1 July snowfall 30.7 27.2  
Snow Depth 999.00 in    
Sea Level Pressure  
Sea Level Pressure 30.29 in    
Wind  
Wind Speed 11 mph (WNW)    
Max Wind Speed 25 mph    
Max Gust Speed 35 mph    
Visibility 10 miles    
Events      
T = Trace of Precipitation, MM = Missing Value Source: NWS Daily Summary

Daily Weather History Graph

Daily Weather History Graph

Search for Another Location

Airport:

Trip Planner

Search our weather history database for the weather conditions in past years. The results will help you decide how hot, cold, wet, or windy it might be!

Date:

Astronomy

Jan. 18, 2013 Rise Set
Actual Time 7:12 AM EST 4:44 PM EST
Civil Twilight 6:41 AM EST 5:15 PM EST
Nautical Twilight 6:06 AM EST 5:49 PM EST
Astronomical Twilight 5:33 AM EST 6:22 PM EST
Moon 10:39 AM EST (1/18) No Moon Set
Length of Visible Light 10h 33m
Length of Day
9h 32m
Waxing Crescent, 47% of the Moon is Illuminated
Jan 18
Waxing Crescent
Jan 18
First Quarter
Jan 26
Full
Feb 3
Last Quarter
Feb 10
New

Hourly Weather History & Observations

Time (EST) Temp. Windchill Dew Point Humidity Pressure Visibility Wind Dir Wind Speed Gust Speed Precip Events Conditions
12:54 AM 25.0 °F 17.1 °F 9.0 °F 51% 30.04 in 10.0 mi North 6.9 mph - N/A   Overcast
1:54 AM 24.1 °F 18.2 °F 6.1 °F 46% 30.08 in 10.0 mi NNW 4.6 mph - N/A   Overcast
2:54 AM 24.1 °F 16.0 °F 6.1 °F 46% 30.07 in 10.0 mi NW 6.9 mph - N/A   Overcast
3:54 AM 21.9 °F 9.8 °F 1.9 °F 42% 30.08 in 10.0 mi North 12.7 mph - N/A   Overcast
4:54 AM 19.9 °F 11.1 °F -0.0 °F 42% 30.11 in 10.0 mi NNW 6.9 mph - N/A   Mostly Cloudy
5:54 AM 17.1 °F 4.3 °F -2.0 °F 43% 30.17 in 10.0 mi NW 11.5 mph - N/A   Clear
6:54 AM 15.1 °F 3.3 °F -2.9 °F 45% 30.21 in 10.0 mi NNW 9.2 mph - N/A   Clear
7:54 AM 14.0 °F 2.9 °F -4.0 °F 45% 30.26 in 10.0 mi NW 8.1 mph - N/A   Clear
8:54 AM 15.1 °F 1.8 °F -5.1 °F 41% 30.30 in 10.0 mi NNW 11.5 mph - N/A   Clear
9:54 AM 17.1 °F 5.8 °F -6.0 °F 36% 30.32 in 10.0 mi WNW 9.2 mph - N/A   Clear
10:54 AM 18.0 °F 5.4 °F -7.1 °F 33% 30.33 in 10.0 mi NW 11.5 mph 26.5 mph N/A   Clear
11:54 AM 19.0 °F 2.0 °F -6.0 °F 33% 30.32 in 10.0 mi WNW 23.0 mph 34.5 mph N/A   Clear
12:54 PM 19.9 °F 4.8 °F -5.1 °F 33% 30.32 in 10.0 mi WNW 18.4 mph 27.6 mph N/A   Clear
1:54 PM 21.0 °F 8.6 °F -6.0 °F 30% 30.34 in 10.0 mi WNW 12.7 mph 25.3 mph N/A   Clear
2:54 PM 21.0 °F 7.6 °F -5.1 °F 32% 30.36 in 10.0 mi NW 15.0 mph 19.6 mph N/A   Clear
3:54 PM 19.9 °F 6.2 °F -2.9 °F 37% 30.37 in 10.0 mi West 15.0 mph - N/A   Clear
4:54 PM 18.0 °F 7.7 °F -2.0 °F 41% 30.39 in 10.0 mi WSW 8.1 mph - N/A   Clear
5:54 PM 17.1 °F 8.7 °F -0.9 °F 45% 30.42 in 10.0 mi WSW 5.8 mph - N/A   Clear
6:54 PM 16.0 °F 5.3 °F -0.0 °F 49% 30.43 in 10.0 mi SW 8.1 mph - N/A   Clear
7:54 PM 16.0 °F 6.3 °F -0.0 °F 49% 30.43 in 10.0 mi SSW 6.9 mph - N/A   Clear
8:54 PM 15.1 °F 4.2 °F 1.0 °F 54% 30.42 in 10.0 mi SW 8.1 mph - N/A   Clear
9:54 PM 15.1 °F 2.5 °F 1.0 °F 54% 30.41 in 10.0 mi SW 10.4 mph - N/A   Clear
10:54 PM 15.1 °F 3.3 °F 1.9 °F 56% 30.39 in 10.0 mi SW 9.2 mph - N/A   Clear
11:54 PM 16.0 °F 2.3 °F 3.0 °F 57% 30.35 in 10.0 mi SSW 12.7 mph - N/A   Overcast